Updated20/10/2020 15:55 
 

GeoURL
free counters
Scottish Weather Network UK Weather Network Cumulus Top Weather Sites

Peebles Weather - Shipping Forecasts

Raw Data, Raw Data Expanded

Ignore low humidity and Dew Point values. Something wrong with the sensor.
Daytime temperatures are in direct sunlight so may be higher than official air temperature values.
As with any other website, we log your IP address and browser type in the server logs for diagnostic reasons. Cookies are used to record visit time and gauges preferences. No personal information is stored or processed.

All times are in local time (GMT, or BST in summer) unless specified.

2020/10/20 14:20 EGPH 201420Z 05009KT 9000 BKN031 11/11 Q0993
13.9°C 0.6 mm 2.1 mm 2.1 mm 4.4 mph 7.6 mph 989.2 hPa 63% X-Ray Solar Flare Level
Planetary K-Index
Planetary K-Index History
Station Warn Rain Snow Flood Wind Ltng Heat Cold Glob Moon Temp Rain 1h Rain Tue Rain 24h Wind 10m Gust Pressure Hum Proton Levels

m Waxing Crescent Cool F1-SSE F: A: Kp:0 SSN:0

UK Shipping Forecasts

 

 

XHTML 1.1 | CSS